Home   Weather   Worb   Past weeks

Flag for Switzerland Past Weather in Worb, Bern, Switzerland — Yesterday and Last 2 Weeks

55 °F

Partly sunny.

Feels Like: 53 °F
Forecast: 45 / 56 °F
Wind: 9 mph from Northwest

Location: Bern / Belp

Current Time: Oct 26, 2016 at 3:25:20 PM

Latest Report: Oct 26, 2016 at 2:50 PM

Visibility: N/A

Pressure: 30.30 "Hg (28.26 "Hg at 583m altitude)

Humidity: 94%

Dew Point: 54 °F

Location of WorbLocation

Past Weather in Worb — Graph


Worb Temperature Yesterday

Maximum temperature yesterday: 55 °F (at 9:20 AM)
Minimum temperature yesterday: 50 °F (at 12:20 AM)
Average temperature yesterday: 54 °F

High & Low Weather Summary for the Past Weeks

High64 °F (Oct 24, 3:20 PM)100% (Oct 11, 9:20 PM)30.30 "Hg (Oct 11, 9:20 PM)
Low27 °F (Oct 12, 4:20 AM)51% (Oct 20, 4:20 PM)29.62 "Hg (Oct 14, 5:20 PM)
Average46 °F90%30.03 "Hg
* Reported Oct 11 1:20 PM — Oct 26 1:50 PM, Worb, Weather by CustomWeather, © 2016

Note: Actual official high and low records may vary slightly from our data, if they occured in-between our weather recording intervals... More about our weather records


Worb Weather History for the Previous 24 Hours

Scroll right to see more
Time TempWeatherWind HumidityBarometerVisibility
1:50 PM
Wed, Oct 26
55 °FBroken clouds.6 mph94%30.30 "HgN/A
1:20 PM55 °FDrizzle. Broken clouds.7 mph94%30.30 "HgN/A
12:50 PM55 °FBroken clouds.6 mph94%30.30 "Hg6 mi
12:20 PM55 °FLight rain. Broken clouds.2 mph94%30.30 "Hg5 mi
11:50 AM54 °FLight rain. Broken clouds.2 mph100%30.30 "Hg4 mi
11:20 AM55 °FLight rain. Broken clouds.1 mph94%30.30 "Hg5 mi
10:50 AM54 °FLight rain. Broken clouds.1 mph100%30.27 "Hg2 mi
10:20 AM54 °FRain. Broken clouds.2 mph100%30.27 "Hg2 mi
9:50 AM54 °FLight rain. Partly sunny.No wind100%30.27 "Hg3 mi
9:20 AM54 °FLight rain. Fog.1 mph100%30.27 "Hg1 mi
8:50 AM52 °FRain. Broken clouds.2 mph100%30.27 "Hg1 mi
8:20 AM52 °FLight rain. Fog.2 mph100%30.27 "Hg1 mi
7:50 AM52 °FLight rain. Partly cloudy.2 mph100%30.24 "Hg2 mi
7:20 AM52 °FRain. Partly cloudy.2 mph100%30.24 "Hg3 mi
6:50 AM52 °FLight rain. Partly cloudy.2 mph100%30.24 "Hg3 mi
6:20 AM52 °FRain. Fog.5 mph100%30.24 "Hg3 mi
5:50 AM52 °FPartly cloudy.6 mph100%30.24 "Hg5 mi
5:20 AM52 °FPartly cloudy.3 mph100%30.24 "Hg5 mi
4:50 AM54 °FPassing clouds.3 mph94%30.24 "Hg5 mi
4:20 AM54 °FPassing clouds.6 mph100%30.24 "HgN/A
3:50 AM54 °FMostly cloudy.5 mph100%30.24 "HgN/A
3:20 AM54 °FMostly cloudy.5 mph100%30.24 "HgN/A
2:50 AM54 °FLow clouds.1 mph100%30.27 "Hg5 mi
2:20 AM54 °FMostly cloudy.1 mph100%30.24 "HgN/A
1:50 AM54 °FMostly cloudy.1 mph100%30.24 "Hg6 mi
1:20 AM54 °FLow clouds.5 mph100%30.27 "HgN/A
12:50 AM54 °FDrizzle. Mostly cloudy.3 mph100%30.24 "HgN/A
12:20 AM54 °FLight rain. Mostly cloudy.3 mph100%30.24 "Hg6 mi
11:50 PM
Tue, Oct 25
54 °FLight rain. Partly cloudy.3 mph100%30.24 "Hg4 mi
11:20 PM54 °FRain. Fog.3 mph100%30.24 "Hg1 mi
10:50 PM54 °FRain. Fog.3 mph100%30.24 "Hg1 mi
10:20 PM54 °FSprinkles. Fog.2 mph100%30.24 "Hg2 mi
9:50 PM54 °FPartly cloudy.2 mph100%30.24 "Hg4 mi
9:20 PM54 °FFog.1 mph100%30.24 "Hg1 mi
8:50 PM54 °FSprinkles. Passing clouds.1 mph100%30.21 "Hg5 mi
8:20 PM54 °FSprinkles. Partly cloudy.1 mph100%30.21 "HgN/A
7:50 PM54 °FLight rain. Overcast.1 mph100%30.21 "HgN/A
7:20 PM54 °FPassing clouds.2 mph100%30.21 "Hg6 mi
6:50 PM54 °FOvercast.2 mph100%30.21 "HgN/A
6:20 PM55 °FLight rain. Broken clouds.3 mph100%30.18 "HgN/A
5:50 PM55 °FPartly sunny.6 mph100%30.18 "HgN/A
5:20 PM55 °FBroken clouds.3 mph100%30.18 "HgN/A
4:50 PM55 °FLight rain. Broken clouds.3 mph100%30.18 "Hg6 mi
4:20 PM55 °FRain. Broken clouds.7 mph100%30.18 "Hg4 mi
3:50 PM55 °FLight rain. Partly sunny.6 mph100%30.18 "Hg4 mi
3:20 PM55 °FRain. Partly sunny.2 mph100%30.18 "Hg6 mi
Weather by CustomWeather, © 2016

See weather overviewHow to use our weather pages